IRIDIUM 134

Last updated on Fri Sep 11 2026 00:03:06 GMT+0000 (Coordinated Universal Time)

1 43075U 17083F 26253.52286081 .00000042 00000+0 77765-5 0 9990 2 43075 86.3927 286.3962 0002260 90.8159 269.3296 14.34217789456338
UTC large
Height (km)
Speed (km/s)
/
Latitude / Longitude
Inclination (degrees)
Orbital Period (minutes)
Azimuth
Elevation
Range (km)
Doppler Factor

Next 0 passes for location: London (51.5072 / 0.1276)

No passes found over London.
IRIDIUM 134